Torna al catalogo

FENGYUN 1C DEB

AttivoSSO
NORAD 37036·DEBRIS·🇨🇳 China

Lanciato May 10, 1999 da Taiyuan Satellite Launch Center

Loading…

Prossimi Passaggi (prossime 24 ore)

TLE

AggiornatoSource: Space-Track

Epoca: Sep 14, 2026, 04:22 UTC

1 37036U 99025EDU 26257.18219254  .00000572  00000-0  36449-3 0  9991
2 37036  98.7355 243.9121 0123255   3.2342 356.9595 14.03845388676120

Traccia FENGYUN 1C DEB in tempo reale con AllMySat

Download on the App Store